x

Port Washington, Wi (pwaw3) Weather Station

7:40pm - Tue 9th Feb 2016 All times are CST. -6 hours from GMT.

  • Wind
    9mph, 15mph gusts
  • Air Temp 18°f
  • Sea Pressure 1013.9mb
  • Port Washington, Wi
  • Port Washington, Wi

More Historic Weather Station data

Upgrade to MSW Pro to gain access to the past 30 days of data for over 8000 Wavebouys and Weather Stations around the globe.

Join Pro

Comparision Forecast

View Surf forecast
   
Tue 02/09 7:40pm 9 15 mph 1013.9mb 18f
7:30pm 8 14 mph 1013.9mb 18f
7:20pm 8 16 mph 1013.9mb 18f
7:10pm 7 10 mph 1013.9mb 18f
7:00pm 9 15 mph 1013.9mb 18f
6:40pm 8 15 mph 1013.5mb 18f
6:30pm 7 13 mph 1013.5mb 18f
6:20pm 7 11 mph 1013.5mb 18f
6:10pm 7 10 mph 1013.5mb 18f
6:00pm 6 11 mph 1013.5mb 18f
5:40pm 7 11 mph 1013.2mb 17f
5:30pm 7 11 mph 1013.2mb 17f
5:20pm 7 10 mph 1013.2mb 17f
5:10pm 7 15 mph 1012.9mb 17f
5:00pm 9 16 mph 1012.9mb 18f
4:40pm 6 14 mph 1012.5mb 18f
4:30pm 8 17 mph 1012.5mb 18f
4:20pm 7 16 mph 1012.5mb 17f
4:10pm 10 17 mph 1012.2mb 18f
4:00pm 13 22 mph 1012.2mb 18f
3:40pm 15 22 mph 1011.9mb 18f
3:30pm 8 23 mph 1011.9mb 18f
3:20pm 11 15 mph 1011.5mb 19f
3:10pm 13 20 mph 1011.5mb 19f
3:00pm 14 21 mph 1011.2mb 19f
2:40pm 11 20 mph 1011.2mb 19f
2:30pm 10 20 mph 1010.8mb 19f
2:20pm 13 17 mph 1010.8mb 19f
2:10pm 9 21 mph 1011.2mb 18f
2:00pm 13 25 mph 1010.8mb 18f
1:40pm 13 21 mph 1010.5mb 18f
1:30pm 10 18 mph 1010.5mb 19f
1:20pm 14 18 mph 1010.5mb 19f
1:10pm 9 22 mph 1010.5mb 18f
1:00pm 11 18 mph 1010.5mb 18f
12:40pm 14 23 mph 1010.5mb 18f
12:30pm 14 22 mph 1010.5mb 18f
12:20pm 14 21 mph 1010.8mb 18f
12:10pm 10 21 mph 1010.5mb 17f
12:00pm 10 23 mph 1010.8mb 17f
11:40am 13 22 mph 1010.8mb 17f
11:30am 13 22 mph 1010.5mb 17f
11:20am 15 22 mph 1010.5mb 17f
11:10am 15 23 mph 1010.8mb 17f
11:00am 8 20 mph 1010.5mb 17f
10:40am 9 21 mph 1010.8mb 17f
10:30am 15 24 mph 1010.5mb 16f
10:20am 11 21 mph 1010.5mb 16f
10:10am 9 22 mph 1010.5mb 16f
10:00am 14 20 mph 1010.5mb 16f
9:40am 15 21 mph 1010.5mb 15f
9:30am 11 23 mph 1010.5mb 15f
9:20am 11 23 mph 1010.8mb 15f
9:10am 10 20 mph 1010.5mb 15f
9:00am 10 22 mph 1010.8mb 15f
8:40am 13 18 mph 1010.5mb 14f
8:30am 14 20 mph 1010.5mb 14f
8:20am 11 21 mph 1010.5mb 14f
8:10am 13 18 mph 1010.5mb 14f
8:00am 9 21 mph 1010.5mb 13f
7:40am 11 17 mph 1010.2mb 13f
7:30am 9 16 mph 1010.2mb 13f
7:20am 10 16 mph 1009.8mb 13f
7:10am 10 17 mph 1009.8mb 13f
7:00am 10 16 mph 1009.8mb 13f
6:40am 10 17 mph 1009.5mb 13f
6:30am 9 17 mph 1009.8mb 13f
6:20am 10 17 mph 1009.5mb 14f
6:10am 10 16 mph 1009.5mb 14f
6:00am 11 18 mph 1009.5mb 14f
5:40am 11 15 mph 1009.1mb 15f
5:30am 10 16 mph 1009.1mb 15f
5:20am 8 15 mph 1008.8mb 15f
5:10am 9 15 mph 1008.8mb 15f
5:00am 8 17 mph 1008.8mb 16f
4:40am 11 18 mph 1008.8mb 16f
4:30am 9 17 mph 1008.8mb 16f
4:20am 10 17 mph 1008.8mb 17f
4:10am 7 15 mph 1008.5mb 17f
4:00am 7 15 mph 1008.5mb 17f
3:40am 9 16 mph 1008.5mb 17f
3:30am 10 15 mph 1008.5mb 17f
3:20am 10 15 mph 1008.1mb 18f
3:10am 9 20 mph 1008.1mb 18f
3:00am 10 16 mph 1008.1mb 18f
2:40am 13 18 mph 1008.1mb 19f
2:30am 11 20 mph 1008.1mb 19f
2:20am 9 15 mph 1008.1mb 19f
2:10am 8 16 mph 1008.1mb 20f
2:00am 9 18 mph 1008.1mb 20f
1:40am 6 9 mph 1007.8mb 20f
1:30am 7 11 mph 1007.8mb 20f
1:20am 8 9 mph 1007.8mb 20f
1:10am 7 9 mph 1007.8mb 20f
1:00am 6 9 mph 1007.8mb 20f
12:40am 8 11 mph 1007.8mb 20f
12:30am 8 10 mph 1007.8mb 21f
12:20am 6 8 mph 1008.1mb 21f
12:10am 6 13 mph 1008.1mb 21f
12:00am 7 11 mph 1008.1mb 21f
Mon 02/08 11:40pm 9 15 mph 1007.8mb 20f
11:30pm 11 17 mph 1007.8mb 20f
11:20pm 8 16 mph 1007.8mb 20f
10:40pm 10 23 mph 1007.8mb 21f
10:30pm 10 17 mph 1007.8mb 21f
10:20pm 7 14 mph 1007.8mb 21f
10:10pm 11 17 mph 1007.8mb 22f
10:00pm 10 17 mph 1007.8mb 22f
9:40pm 13 20 mph 1007.8mb 22f
9:30pm 10 20 mph 1007.5mb 22f
9:20pm 10 16 mph 1007.5mb 23f
9:10pm 9 17 mph 1007.5mb 23f
9:00pm 10 20 mph 1007.5mb 23f
8:50pm 10 17 mph 1007.5mb 23f
8:40pm 10 16 mph 1007.5mb 23f
8:30pm 8 14 mph 1007.5mb 24f
8:20pm 11 16 mph 1007.5mb 24f
8:10pm 8 16 mph 1007.5mb 24f
8:00pm 10 14 mph 1007.5mb 25f
7:50pm 8 13 mph 1007.5mb 25f
7:40pm 6 10 mph 1007.5mb 26f
7:30pm 7 11 mph 1007.5mb 26f
7:20pm 8 10 mph 1007.5mb 26f
7:10pm 6 10 mph 1007.5mb 26f
7:00pm 7 14 mph 1007.5mb 26f
6:50pm 8 11 mph 1007.5mb 26f
6:40pm 7 14 mph 1007.5mb 26f
6:30pm 9 14 mph 1007.5mb 26f
6:20pm 9 15 mph 1007.5mb 26f
6:10pm 10 17 mph 1007.5mb 26f
6:00pm 9 17 mph 1007.1mb 27f
5:50pm 10 17 mph 1007.1mb 27f
5:40pm 10 17 mph 1006.8mb 27f
5:30pm 11 17 mph 1006.8mb 27f
5:20pm 11 18 mph 1006.8mb 27f
5:10pm 13 18 mph 1006.4mb 27f
5:00pm 11 21 mph 1006.4mb 27f
4:50pm 13 18 mph 1006.1mb 27f
4:40pm 13 21 mph 1006.1mb 28f
4:30pm 11 18 mph 1006.1mb 28f
4:20pm 11 17 mph 1006.1mb 28f
4:10pm 10 17 mph 1005.8mb 29f
4:00pm 10 17 mph 1005.8mb 28f
3:50pm 7 18 mph 1005.8mb 28f
3:40pm 10 17 mph 1005.8mb 28f
3:30pm 10 14 mph 1005.4mb 28f
3:20pm 9 15 mph 1005.4mb 28f
3:10pm 13 17 mph 1005.4mb 28f
3:00pm 9 15 mph 1005.4mb 28f
2:50pm 9 20 mph 1005.1mb 28f
2:40pm 13 21 mph 1005.1mb 27f
2:30pm 11 17 mph 1004.7mb 28f
2:20pm 11 22 mph 1004.7mb 28f
2:10pm 10 22 mph 1004.7mb 28f
2:00pm 13 24 mph 1004.7mb 28f
1:50pm 10 22 mph 1004.4mb 28f
1:40pm 15 22 mph 1004.4mb 28f
1:30pm 11 21 mph 1004.7mb 28f
1:20pm 11 22 mph 1004.4mb 28f
1:10pm 14 20 mph 1004.4mb 28f
1:00pm 11 18 mph 1004.4mb 28f
12:50pm 13 23 mph 1004.7mb 28f
12:40pm 11 18 mph 1004.4mb 28f
12:30pm 13 20 mph 1004.4mb 28f
12:20pm 11 22 mph 1004.4mb 28f
12:10pm 10 18 mph 1004.4mb 28f
12:00pm 13 21 mph 1004.7mb 28f
11:40am 9 15 mph 1004.7mb 27f
11:30am 10 16 mph 1004.7mb 27f
11:20am 10 17 mph 1004.7mb 28f
11:10am 9 18 mph 1004.7mb 28f
11:00am 13 16 mph 1004.7mb 28f
10:50am 10 18 mph 1004.7mb 28f
10:40am 9 16 mph 1004.7mb 28f
10:30am 10 16 mph 1004.7mb 29f
10:20am 9 18 mph 1004.7mb 29f
10:10am 11 17 mph 1004.7mb 29f
10:00am 9 17 mph 1004.4mb 29f
9:50am 8 15 mph 1004.4mb 30f
9:40am 11 18 mph 1004.4mb 30f
9:30am 8 15 mph 1004.1mb 30f
9:20am 14 18 mph 1004.1mb 30f
9:10am 8 14 mph 1003.7mb 30f
9:00am 10 16 mph 1003.7mb 30f
8:50am 9 17 mph 1003.7mb 30f
8:40am 10 17 mph 1003.4mb 30f
8:30am 10 18 mph 1003.4mb 30f
8:20am 11 17 mph 1003.4mb 30f
8:10am 13 17 mph 1003.4mb 31f
8:00am 9 14 mph 1003.4mb 31f
7:50am 8 15 mph 1003.4mb 31f
7:40am 9 15 mph 1003.4mb 31f
7:30am 10 17 mph 1003mb 31f
7:20am 9 14 mph 1003mb 32f
7:10am 8 16 mph 1003mb 32f
7:00am 8 11 mph 1003mb 32f
6:50am 9 13 mph 1003mb 32f
6:40am 5 9 mph 1003mb 32f
6:30am 7 9 mph 1003mb 32f
6:20am 6 11 mph 1003mb 32f
6:10am 7 15 mph 1002.7mb 32f
6:00am 8 14 mph 1002.7mb 33f
5:50am 5 9 mph 1002.7mb 33f
5:40am 3 6 mph 1002.7mb 33f
5:30am 3 7 mph 1002.7mb 32f
5:20am 5 8 mph 1002.7mb 33f
5:10am 6 10 mph 1002.4mb 33f
5:00am 7 9 mph 1002.4mb 32f
4:50am 7 10 mph 1002.4mb 33f
4:40am 7 10 mph 1002.4mb 33f
4:30am 6 9 mph 1002.4mb 33f
4:20am 6 9 mph 1002.4mb 33f
4:10am 5 8 mph 1002.4mb 33f
4:00am 6 9 mph 1002.7mb 33f
3:50am 7 9 mph 1002.4mb 33f
3:40am 7 11 mph 1002.4mb 33f
3:30am 6 9 mph 1002.4mb 33f
3:20am 6 10 mph 1002.4mb 33f
3:10am 6 9 mph 1002.4mb 33f
3:00am 7 9 mph 1002.7mb 33f
2:50am 6 9 mph 1002.7mb 33f
2:40am 6 9 mph 1002.7mb 33f
2:30am 6 9 mph 1003mb 33f
2:20am 6 9 mph 1003mb 33f
2:10am 6 8 mph 1003mb 32f
2:00am 5 9 mph 1003mb 32f
1:50am 3 7 mph 1003.4mb 32f
1:40am 5 8 mph 1003.4mb 32f
1:30am 5 8 mph 1003.4mb 32f
1:20am 6 8 mph 1003.4mb 32f
1:10am 6 7 mph 1003.4mb 32f
1:00am 5 7 mph 1003.4mb 31f
12:50am 3 6 mph 1003.7mb 31f
12:40am 3 5 mph 1003.7mb 31f
12:30am 2 5 mph 1003.7mb 32f
12:20am 3 6 mph 1003.7mb 32f
12:10am 3 7 mph 1003.7mb 33f
12:00am 5 7 mph 1004.1mb 33f
Sun 02/07 11:50pm 6 8 mph 1003.7mb 33f
11:40pm 3 7 mph 1003.7mb 33f
11:30pm 5 7 mph 1004.1mb 33f
11:20pm 5 7 mph 1004.1mb 33f
11:10pm 5 6 mph 1004.4mb 33f
11:00pm 2 6 mph 1004.4mb 33f
10:50pm 2 6 mph 1004.4mb 33f
10:40pm 3 10 mph 1004.4mb 34f
10:30pm 3 7 mph 1004.4mb 34f
10:20pm 5 9 mph 1004.7mb 34f
10:10pm 5 9 mph 1004.7mb 35f
10:00pm 7 13 mph 1004.7mb 35f
9:50pm 8 10 mph 1004.7mb 35f
9:40pm 5 9 mph 1004.7mb 35f
9:30pm 7 10 mph 1005.1mb 35f
9:20pm 7 11 mph 1005.1mb 36f
9:10pm 7 10 mph 1005.1mb 36f
9:00pm 7 10 mph 1005.4mb 36f
8:50pm 7 13 mph 1005.4mb 37f
8:40pm 7 14 mph 1005.4mb 37f
8:30pm 9 13 mph 1005.4mb 37f
8:20pm 8 11 mph 1005.4mb 37f
8:10pm 7 14 mph 1005.4mb 37f
8:00pm 7 11 mph 1005.4mb 37f
7:50pm 8 13 mph 1005.4mb 37f
7:40pm 9 13 mph 1005.8mb 37f
7:30pm 6 10 mph 1005.8mb 37f
7:20pm 6 9 mph 1005.8mb 37f
7:10pm 7 11 mph 1005.4mb 38f
7:00pm 9 11 mph 1005.8mb 38f
6:50pm 6 9 mph 1005.8mb 38f
6:40pm 7 9 mph 1005.8mb 38f
6:30pm 5 9 mph 1005.8mb 38f
6:20pm 6 7 mph 1005.8mb 38f
6:10pm 6 8 mph 1005.8mb 39f
6:00pm 5 10 mph 1005.8mb 40f
5:50pm 6 9 mph 1005.8mb 40f
5:40pm 6 9 mph 1005.8mb 40f
5:30pm 6 11 mph 1005.8mb 41f
5:20pm 7 11 mph 1005.8mb 41f
5:10pm 9 15 mph 1005.8mb 42f
5:00pm 8 14 mph 1005.4mb 42f
4:50pm 7 14 mph 1005.4mb 43f
4:40pm 8 18 mph 1005.4mb 43f
4:30pm 10 16 mph 1005.4mb 44f
4:20pm 9 15 mph 1005.1mb 44f
4:10pm 8 18 mph 1005.1mb 44f
4:00pm 14 18 mph 1005.1mb 44f
3:50pm 11 18 mph 1004.7mb 45f
3:40pm 11 20 mph 1004.7mb 45f
3:30pm 10 20 mph 1004.7mb 44f
3:20pm 14 20 mph 1004.7mb 45f
3:10pm 13 23 mph 1004.7mb 45f
3:00pm 14 23 mph 1004.7mb 45f
2:50pm 14 21 mph 1004.4mb 46f
2:40pm 11 20 mph 1004.4mb 46f
2:30pm 11 22 mph 1004.4mb 45f
2:20pm 13 22 mph 1004.4mb 45f
2:10pm 14 20 mph 1004.4mb 46f
2:00pm 9 17 mph 1004.1mb 46f
1:50pm 13 17 mph 1004.4mb 45f
1:40pm 11 17 mph 1004.1mb 45f
1:30pm 9 16 mph 1004.1mb 45f
1:20pm 9 16 mph 1004.4mb 45f
1:10pm 13 17 mph 1004.4mb 44f
1:00pm 11 17 mph 1004.4mb 44f
12:50pm 8 18 mph 1004.4mb 43f
12:40pm 11 18 mph 1004.7mb 43f
12:30pm 14 20 mph 1004.7mb 44f
12:20pm 13 18 mph 1004.7mb 44f
12:10pm 11 20 mph 1004.7mb 43f
12:00pm 13 22 mph 1005.1mb 43f
11:50am 15 22 mph 1005.1mb 43f
11:40am 10 20 mph 1005.1mb 43f
11:30am 14 20 mph 1005.4mb 43f
11:20am 11 21 mph 1005.8mb 42f
11:10am 10 25 mph 1005.8mb 42f
11:00am 13 22 mph 1005.8mb 41f
10:50am 11 21 mph 1005.8mb 41f
10:40am 10 21 mph 1005.8mb 41f
10:30am 11 22 mph 1005.8mb 41f
10:20am 15 23 mph 1005.8mb 41f
10:10am 13 21 mph 1005.8mb 41f
10:00am 11 23 mph 1006.1mb 41f
9:50am 14 24 mph 1006.1mb 41f
9:40am 13 22 mph 1006.1mb 41f
9:30am 14 28 mph 1006.4mb 41f
9:20am 14 21 mph 1006.4mb 41f
9:10am 8 17 mph 1006.4mb 41f
9:00am 7 21 mph 1006.4mb 40f
8:50am 11 18 mph 1006.8mb 40f
8:40am 11 18 mph 1007.1mb 40f
8:30am 13 18 mph 1007.5mb 40f
8:20am 9 15 mph 1006.8mb 40f
8:10am 10 15 mph 1007.1mb 39f
8:00am 8 16 mph 1007.5mb 39f
7:50am 9 13 mph 1007.1mb 39f
7:40am 9 14 mph 1007.5mb 39f
7:30am 7 13 mph 1007.5mb 39f
7:20am 8 13 mph 1008.1mb 39f
7:10am 8 13 mph 1008.1mb 38f
7:00am 5 13 mph 1008.1mb 38f
6:40am 7 11 mph 1008.5mb 38f
6:30am 8 11 mph 1008.5mb 38f
6:20am 9 14 mph 1008.8mb 38f
6:10am 8 13 mph 1008.8mb 38f
6:00am 8 11 mph 1009.1mb 38f
5:50am 7 11 mph 1009.1mb 37f
5:40am 8 13 mph 1009.1mb 37f
5:30am 7 10 mph 1009.5mb 37f
5:20am 7 9 mph 1009.5mb 36f
5:10am 7 11 mph 1009.8mb 36f
5:00am 9 13 mph 1009.8mb 36f
4:50am 8 13 mph 1009.8mb 36f
4:40am 8 14 mph 1009.8mb 36f
4:30am 8 15 mph 1010.2mb 37f
4:20am 8 14 mph 1010.5mb 36f
4:10am 8 11 mph 1010.5mb 36f
4:00am 6 9 mph 1010.8mb 36f
3:50am 5 7 mph 1011.2mb 35f
3:40am 5 8 mph 1011.5mb 35f
3:30am 5 6 mph 1011.9mb 35f
3:20am 3 7 mph 1012.2mb 35f
3:10am 5 7 mph 1012.2mb 34f
3:00am 5 8 mph 1012.5mb 34f
2:50am 6 8 mph 1012.9mb 34f
2:40am 6 8 mph 1012.9mb 34f
2:30am 5 8 mph 1013.5mb 34f
2:20am 6 8 mph 1013.9mb 34f
2:10am 6 7 mph 1013.9mb 34f
2:00am 5 7 mph 1014.2mb 34f
1:50am 5 7 mph 1014.2mb 34f
1:40am 6 7 mph 1014.6mb 34f
1:30am 5 7 mph 1014.9mb 33f
1:20am 5 7 mph 1014.9mb 33f
1:10am 5 7 mph 1015.2mb 33f
1:00am 5 8 mph 1015.2mb 33f
12:50am 7 9 mph 1015.6mb 33f
12:40am 7 9 mph 1015.6mb 33f
12:30am 6 10 mph 1015.9mb 33f
12:20am 8 9 mph 1015.9mb 33f
12:10am 6 8 mph 1016.3mb 33f
12:00am 5 8 mph 1016.3mb 33f
Sat 02/06 11:50pm 6 10 mph 1016.3mb 33f
11:40pm 3 7 mph 1016.6mb 33f
11:30pm 3 8 mph 1016.6mb 33f
11:20pm 5 7 mph 1016.6mb 32f
11:10pm 2 6 mph 1016.9mb 32f
11:00pm 3 6 mph 1016.9mb 32f
10:50pm 5 8 mph 1016.9mb 31f
10:40pm 3 7 mph 1017.3mb 31f
10:30pm 3 7 mph 1017.3mb 31f
10:20pm 5 8 mph 1017.6mb 31f
10:10pm 3 6 mph 1017.6mb 31f
10:00pm 3 7 mph 1017.6mb 31f
9:50pm 5 8 mph 1017.3mb 31f
9:40pm 6 8 mph 1017.6mb 31f
9:30pm 5 7 mph 1017.6mb 31f
9:20pm 6 8 mph 1017.9mb 31f
9:10pm 5 8 mph 1017.9mb 31f
9:00pm 5 9 mph 1017.9mb 31f
8:50pm 6 8 mph 1018.3mb 31f
8:40pm 6 10 mph 1018.3mb 31f
8:30pm 7 9 mph 1018.6mb 31f
8:20pm 6 8 mph 1019mb 31f
8:10pm 5 10 mph 1019mb 31f
8:00pm 5 8 mph 1019mb 31f
7:50pm 5 7 mph 1019.3mb 31f
7:40pm 3 8 mph 1019.3mb 31f
7:30pm 6 8 mph 1019.3mb 31f
7:20pm 5 8 mph 1019.6mb 31f
7:10pm 6 8 mph 1019.6mb 31f
7:00pm 5 7 mph 1019.6mb 31f
6:50pm 5 7 mph 1020mb 31f
6:40pm 5 7 mph 1020mb 31f
6:30pm 5 6 mph 1020mb 31f
6:20pm 5 8 mph 1020mb 31f
6:10pm 5 7 mph 1020mb 31f
6:00pm 3 7 mph 1020.3mb 32f
5:50pm 5 6 mph 1020.3mb 32f
5:40pm 5 9 mph 1020.3mb 32f
5:30pm 6 10 mph 1020.3mb 33f
5:20pm 9 14 mph 1020.3mb 33f
5:10pm 10 16 mph 1020.3mb 33f
5:00pm 7 15 mph 1020.3mb 34f
4:50pm 8 13 mph 1020.7mb 34f
4:40pm 9 15 mph 1020.7mb 35f
4:30pm 9 14 mph 1020.3mb 35f
4:20pm 10 13 mph 1020.3mb 35f
4:10pm 9 13 mph 1020.7mb 34f
4:00pm 9 16 mph 1020.7mb 34f
3:50pm 8 14 mph 1020.7mb 34f
3:40pm 7 15 mph 1020.7mb 34f
3:30pm 9 15 mph 1020.7mb 34f
3:20pm 6 13 mph 1020.7mb 34f
3:10pm 10 17 mph 1020.7mb 34f
3:00pm 9 13 mph 1021mb 34f
2:50pm 7 15 mph 1020.7mb 34f
2:40pm 11 16 mph 1020.7mb 34f
2:30pm 9 16 mph 1020.7mb 34f
2:20pm 10 16 mph 1020.7mb 34f
2:10pm 9 16 mph 1020.7mb 34f
2:00pm 10 17 mph 1020.7mb 34f
1:50pm 13 18 mph 1020.7mb 33f
1:40pm 11 18 mph 1020.7mb 33f
1:30pm 11 18 mph 1021mb 33f
1:20pm 13 17 mph 1021mb 33f
1:10pm 11 16 mph 1021mb 33f
1:00pm 9 18 mph 1021.3mb 33f
12:50pm 10 18 mph 1021.3mb 33f
12:40pm 11 18 mph 1021.7mb 33f
12:30pm 11 21 mph 1021.7mb 33f
12:20pm 11 18 mph 1021.7mb 32f
12:10pm 13 20 mph 1021.7mb 33f
12:00pm 11 17 mph 1021.7mb 32f
11:50am 10 18 mph 1022mb 32f
11:40am 13 18 mph 1022mb 32f
11:30am 13 22 mph 1022mb 32f
11:20am 11 20 mph 1022mb 32f
11:10am 10 18 mph 1022.4mb 32f
11:00am 13 21 mph 1022.7mb 32f
10:50am 8 16 mph 1022.7mb 32f
10:40am 6 17 mph 1022.7mb 32f
10:30am 8 15 mph 1022.7mb 32f
10:20am 9 17 mph 1022.7mb 31f
10:10am 8 14 mph 1023mb 31f
10:00am 10 18 mph 1023mb 31f
9:50am 9 17 mph 1023mb 31f
9:40am 10 16 mph 1023mb 31f
9:30am 9 16 mph 1023mb 31f
9:20am 10 16 mph 1023mb 31f
9:10am 9 17 mph 1023mb 31f
9:00am 9 16 mph 1022.7mb 30f
8:50am 8 18 mph 1023mb 30f
8:40am 10 15 mph 1023mb 30f
8:30am 8 16 mph 1023mb 30f
8:20am 10 15 mph 1023.4mb 30f
8:10am 7 17 mph 1023.4mb 30f
8:00am 11 14 mph 1023.4mb 30f
7:50am 9 15 mph 1023.7mb 29f
7:40am 10 15 mph 1023.7mb 29f
7:30am 9 13 mph 1023.7mb 29f
7:20am 7 14 mph 1023.7mb 29f
7:10am 9 13 mph 1023.4mb 29f
7:00am 7 14 mph 1023.4mb 29f
6:50am 8 11 mph 1023.4mb 29f
6:40am 7 11 mph 1023.4mb 29f
6:30am 8 13 mph 1023.4mb 29f
6:20am 8 13 mph 1023.4mb 29f
6:10am 8 13 mph 1023.4mb 29f
6:00am 8 11 mph 1023.4mb 29f
5:50am 7 10 mph 1023.4mb 28f
5:40am 7 11 mph 1023.4mb 28f
5:30am 9 11 mph 1023.4mb 28f
5:20am 6 10 mph 1023.4mb 28f
5:10am 7 10 mph 1023.4mb 28f
5:00am 7 9 mph 1023.4mb 28f
4:50am 8 11 mph 1023.7mb 29f
4:40am 7 14 mph 1023.7mb 29f
4:30am 7 9 mph 1024mb 29f
4:20am 9 13 mph 1024mb 29f
4:10am 7 10 mph 1024.4mb 29f
4:00am 7 10 mph 1024.4mb 29f
3:50am 7 11 mph 1024.4mb 29f
3:40am 8 15 mph 1024.4mb 29f
3:30am 5 11 mph 1024.4mb 29f
3:20am 7 9 mph 1024mb 29f
3:10am 7 11 mph 1024mb 29f